Location: Unspecified
(0.0000°N, 0.0000°E)
Time: 16:49:59
(UTC+00:00)

IRS-1B Rocket - Pass Details

Date: 31 October 2025
Orbit: 868 x 904 km, 99.5° (Epoch: 29 March)

Event Time Altitude Azimuth Distance (km) Brightness Sun altitude
Rises 17:35:30 0° 49° (NE) 3,513 7.4 2.0°
Reaches altitude 10° 17:39:06 10° 72° (ENE) 2,576 6.6 1.1°
Drops below altitude 10° 17:45:04 10° 136° (SE) 2,577 6.9 -0.4°
Enters shadow 19:04:36 -27° 8° (N) 7,460 9.4 -19.6°
Maximum altitude 19:23:06 42° 284° (WNW) 1,265 6.0 -24.0°
